Flag for U.S.A. Weather past 2 weeks in Lubbock, Texas, U.S.A.

Now
93 °F

Scattered clouds.


Feels Like: 93 °F
Forecast: 69 / 90 °F
Wind: 20 mph from South

Location: Lubbock International Airport

Current Time: Aug 20, 2014 at 5:25:11 PM

Latest Report: Aug 20, 2014 at 4:53 PM


Visibility: 10 mi

Pressure: 29.72 "Hg

Humidity: 33%

Dew point: 60 °F

Location of LubbockLocation

Historic Weather in Lubbock — Graph

°F

Lubbock temperature yesterday

Maximum temperature yesterday: 93 °F (at 5:53 PM)
Minimum temperature yesterday: 66 °F (at 3:53 AM)
Average temperature yesterday: 78 °F

Past Weeks' High & Low Weather Summary

 TemperatureHumidityPressure
High101 °F (Aug 7, 4:53 PM)97% (Aug 19, 5:53 AM)30.15 "Hg (Aug 19, 5:53 AM)
Low64 °F (Aug 13, 6:53 AM)18% (Aug 7, 3:53 PM)29.69 "Hg (Aug 19, 6:53 PM)
Average81 °F51%29.90 "Hg
* Reported Aug 5 3:53 PM — Aug 20 3:53 PM, Lubbock, Weather by CustomWeather, © 2014

Note: Actual official high and low records may vary slightly from our data, if they occured in-between our weather recording intervals... More about our weather records

Advertising

Lubbock weather history for previous 24 hours

 ConditionsComfort  
Time TempWeatherWind HumidityBarometerVisibility
3:53 PM
Aug 20
92 °FScattered clouds.17 mph36%29.74 "Hg10 mi
2:53 PM93 °FScattered clouds.17 mph34%29.75 "Hg10 mi
1:53 PM93 °FPassing clouds.16 mph37%29.77 "Hg10 mi
12:53 PM90 °FPassing clouds.17 mph42%29.78 "Hg10 mi
11:53 AM87 °FPassing clouds.15 mph45%29.79 "Hg10 mi
10:53 AM84 °FPassing clouds.18 mph51%29.79 "Hg10 mi
9:53 AM79 °FSunny.18 mph60%29.79 "Hg10 mi
8:53 AM74 °FPassing clouds.15 mph69%29.79 "Hg10 mi
7:53 AM70 °FClear.12 mph79%29.79 "Hg9 mi
6:53 AM71 °FPassing clouds.12 mph73%29.77 "Hg10 mi
5:53 AM71 °FPassing clouds.10 mph71%29.76 "Hg10 mi
4:53 AM72 °FPassing clouds.9 mph68%29.76 "Hg10 mi
3:53 AM74 °FPassing clouds.14 mph64%29.75 "Hg10 mi
2:53 AM75 °FClear.15 mph64%29.74 "Hg10 mi
1:53 AM77 °FPassing clouds.17 mph62%29.75 "Hg10 mi
12:53 AM78 °FPassing clouds.16 mph62%29.77 "Hg10 mi
11:53 PM
Aug 19
79 °FPassing clouds.15 mph60%29.76 "Hg10 mi
10:53 PM80 °FPassing clouds.16 mph56%29.76 "Hg10 mi
9:53 PM82 °FPassing clouds.16 mph53%29.75 "Hg10 mi
8:53 PM84 °FPassing clouds.15 mph49%29.72 "Hg10 mi
7:53 PM87 °FPassing clouds.15 mph43%29.70 "Hg10 mi
6:53 PM89 °FPassing clouds.15 mph39%29.69 "Hg10 mi
5:53 PM93 °FPassing clouds.9 mph32%29.70 "Hg10 mi
Weather by CustomWeather, © 2014

See weather overviewHow to use our weather pages